TimeCST,TemperatureF,Dew PointF,Humidity,Sea Level PressureIn,VisibilityMPH,Wind Direction,Wind SpeedMPH,Gust SpeedMPH,PrecipitationIn,Events,Conditions,WindDirDegrees,DateUTC
12:55 AM,61.3,59.4,93,29.98,10.0,ESE,4.6,-,N/A,,Mostly Cloudy,110,2012-12-08 06:55:00
1:55 AM,61.3,59.9,95,29.97,10.0,ESE,5.8,-,N/A,,Mostly Cloudy,120,2012-12-08 07:55:00
2:55 AM,61.7,59.9,94,29.97,10.0,SE,5.8,-,N/A,,Overcast,130,2012-12-08 08:55:00
3:48 AM,60.8,59.0,94,29.97,10.0,East,4.6,-,N/A,,Mostly Cloudy,100,2012-12-08 09:48:00
3:55 AM,61.2,59.7,95,29.97,10.0,ESE,5.8,-,N/A,,Mostly Cloudy,120,2012-12-08 09:55:00
4:55 AM,61.3,59.0,92,29.97,10.0,East,3.5,-,N/A,,Overcast,80,2012-12-08 10:55:00
5:03 AM,60.8,59.0,94,29.98,10.0,East,3.5,-,N/A,,Overcast,80,2012-12-08 11:03:00
5:11 AM,60.8,59.0,94,29.98,10.0,East,3.5,-,N/A,,Overcast,100,2012-12-08 11:11:00
5:35 AM,60.8,59.0,94,29.98,10.0,ENE,4.6,-,N/A,,Overcast,60,2012-12-08 11:35:00
5:46 AM,60.8,59.0,94,29.98,10.0,ENE,4.6,-,N/A,,Overcast,70,2012-12-08 11:46:00
5:55 AM,60.6,59.9,97,29.99,10.0,ENE,3.5,-,N/A,,Overcast,70,2012-12-08 11:55:00
5:56 AM,60.8,59.0,94,29.99,10.0,ENE,3.5,-,N/A,,Overcast,70,2012-12-08 11:56:00
5:58 AM,60.8,59.0,94,29.99,10.0,ENE,4.6,-,N/A,,Overcast,70,2012-12-08 11:58:00
6:03 AM,60.8,59.0,94,29.99,10.0,ENE,3.5,-,N/A,,Light Drizzle,70,2012-12-08 12:03:00
6:11 AM,60.8,60.8,100,29.99,10.0,East,3.5,-,N/A,,Overcast,80,2012-12-08 12:11:00
6:55 AM,60.8,60.4,99,30.00,10.0,Calm,Calm,-,0.00,,Mostly Cloudy,0,2012-12-08 12:55:00
7:06 AM,60.8,60.8,100,30.01,10.0,Calm,Calm,-,N/A,,Mostly Cloudy,0,2012-12-08 13:06:00
7:22 AM,60.8,60.8,100,30.01,10.0,ESE,3.5,-,N/A,,Mostly Cloudy,110,2012-12-08 13:22:00
7:32 AM,62.6,60.8,94,30.02,10.0,Calm,Calm,-,N/A,,Overcast,0,2012-12-08 13:32:00
7:38 AM,62.6,60.8,94,30.02,10.0,Calm,Calm,-,N/A,,Overcast,0,2012-12-08 13:38:00
7:45 AM,62.6,60.8,94,30.02,10.0,Calm,Calm,-,N/A,,Overcast,0,2012-12-08 13:45:00
7:48 AM,62.6,60.8,94,30.02,10.0,Calm,Calm,-,N/A,,Overcast,0,2012-12-08 13:48:00
7:55 AM,62.6,60.8,94,30.02,10.0,ESE,4.6,-,N/A,,Overcast,110,2012-12-08 13:55:00
8:05 AM,62.6,60.8,94,30.03,10.0,ESE,3.5,-,N/A,,Overcast,110,2012-12-08 14:05:00
8:06 AM,62.6,60.8,94,30.02,10.0,ESE,3.5,-,N/A,,Overcast,120,2012-12-08 14:06:00
8:07 AM,62.6,60.8,94,30.02,10.0,SE,3.5,-,N/A,,Light Drizzle,130,2012-12-08 14:07:00
8:13 AM,62.6,60.8,94,30.03,10.0,Calm,Calm,-,N/A,,Overcast,0,2012-12-08 14:13:00
8:18 AM,62.6,60.8,94,30.03,10.0,ESE,3.5,-,N/A,,Light Drizzle,120,2012-12-08 14:18:00
8:26 AM,62.6,60.8,94,30.03,10.0,SE,3.5,-,N/A,,Light Drizzle,140,2012-12-08 14:26:00
8:44 AM,64.4,60.8,88,30.03,10.0,ESE,5.8,-,N/A,,Overcast,110,2012-12-08 14:44:00
8:47 AM,64.4,60.8,88,30.03,10.0,ESE,4.6,-,N/A,,Light Drizzle,110,2012-12-08 14:47:00
8:54 AM,64.4,62.6,94,30.03,7.0,East,4.6,-,N/A,Rain,Light Rain,100,2012-12-08 14:54:00
8:55 AM,64.0,61.7,92,30.03,7.0,East,5.8,-,0.00,Rain,Light Rain,90,2012-12-08 14:55:00
9:09 AM,64.4,62.6,94,30.04,4.0,Calm,Calm,-,N/A,Rain,Light Rain,0,2012-12-08 15:09:00
9:15 AM,64.4,62.6,94,30.04,9.0,Calm,Calm,-,N/A,,Light Drizzle,0,2012-12-08 15:15:00
9:16 AM,64.4,62.6,94,30.04,9.0,Calm,Calm,-,N/A,,Mostly Cloudy,0,2012-12-08 15:16:00
9:20 AM,64.4,62.6,94,30.04,10.0,Calm,Calm,-,N/A,,Light Drizzle,0,2012-12-08 15:20:00
9:22 AM,64.4,62.6,94,30.04,7.0,East,3.5,-,N/A,Rain,Light Rain,100,2012-12-08 15:22:00
9:25 AM,64.4,62.6,94,30.04,2.5,Calm,Calm,-,N/A,Rain,Light Rain,0,2012-12-08 15:25:00
9:26 AM,64.4,62.6,94,30.04,2.0,ESE,3.5,-,N/A,Rain,Light Rain,110,2012-12-08 15:26:00
9:27 AM,64.4,62.6,94,30.04,1.8,ESE,3.5,-,N/A,Rain,Light Rain,110,2012-12-08 15:27:00
9:30 AM,64.4,62.6,94,30.04,1.2,ESE,4.6,-,N/A,Rain,Rain,110,2012-12-08 15:30:00
9:33 AM,64.4,62.6,94,30.04,1.0,East,3.5,-,N/A,Rain,Rain,80,2012-12-08 15:33:00
9:34 AM,64.4,62.6,94,30.04,1.2,ENE,3.5,-,N/A,Rain,Heavy Rain,70,2012-12-08 15:34:00
9:35 AM,64.4,62.6,94,30.04,1.5,East,3.5,-,N/A,Rain,Heavy Rain,80,2012-12-08 15:35:00
9:37 AM,64.4,62.6,94,30.04,2.0,East,3.5,-,N/A,Rain,Light Rain,90,2012-12-08 15:37:00
9:38 AM,64.4,62.6,94,30.04,2.5,East,3.5,-,N/A,Rain,Light Rain,90,2012-12-08 15:38:00
9:40 AM,64.4,62.6,94,30.04,3.0,Calm,Calm,-,N/A,Rain,Light Rain,0,2012-12-08 15:40:00
9:43 AM,64.4,64.4,100,30.04,9.0,Calm,Calm,-,N/A,,Overcast,0,2012-12-08 15:43:00
9:48 AM,64.4,64.4,100,30.04,10.0,Calm,Calm,-,N/A,Rain,Light Rain,0,2012-12-08 15:48:00
9:55 AM,64.8,64.4,99,30.03,8.0,Calm,Calm,-,0.06,Rain,Light Rain,0,2012-12-08 15:55:00
9:59 AM,64.4,64.4,100,30.03,9.0,Calm,Calm,-,N/A,Rain,Light Rain,0,2012-12-08 15:59:00
10:00 AM,66.2,64.4,94,30.03,10.0,ESE,3.5,-,N/A,,Overcast,120,2012-12-08 16:00:00
10:07 AM,66.2,64.4,94,30.03,10.0,Calm,Calm,-,N/A,,Overcast,0,2012-12-08 16:07:00
10:11 AM,66.2,64.4,94,30.03,10.0,SE,4.6,-,N/A,,Overcast,130,2012-12-08 16:11:00
10:31 AM,66.2,64.4,94,30.02,10.0,SE,6.9,-,N/A,,Overcast,130,2012-12-08 16:31:00
10:55 AM,68.0,63.9,87,30.01,10.0,SE,4.6,-,0.00,,Mostly Cloudy,130,2012-12-08 16:55:00
10:58 AM,68.0,64.4,88,30.01,10.0,SE,4.6,-,N/A,,Mostly Cloudy,140,2012-12-08 16:58:00
11:55 AM,71.8,63.7,76,29.98,10.0,South,9.2,-,N/A,,Scattered Clouds,170,2012-12-08 17:55:00
12:55 PM,74.5,62.2,66,29.96,10.0,South,6.9,-,N/A,,Scattered Clouds,190,2012-12-08 18:55:00
1:55 PM,75.7,61.2,60,29.95,10.0,South,9.2,-,N/A,,Scattered Clouds,180,2012-12-08 19:55:00
2:55 PM,73.9,62.2,67,29.95,10.0,South,6.9,-,N/A,,Partly Cloudy,190,2012-12-08 20:55:00
3:55 PM,73.4,62.6,69,29.96,10.0,SSW,10.4,-,N/A,,Scattered Clouds,200,2012-12-08 21:55:00
4:55 PM,67.8,61.9,81,29.98,10.0,South,8.1,-,N/A,,Clear,180,2012-12-08 22:55:00
5:55 PM,64.8,62.1,91,29.99,10.0,South,4.6,-,N/A,,Clear,170,2012-12-08 23:55:00
6:55 PM,61.9,61.5,99,30.00,10.0,Calm,Calm,-,N/A,,Clear,0,2012-12-09 00:55:00
7:01 PM,60.8,60.8,100,30.01,2.5,Calm,Calm,-,N/A,,Clear,0,2012-12-09 01:01:00
7:04 PM,60.8,60.8,100,30.01,3.0,Calm,Calm,-,N/A,,Clear,0,2012-12-09 01:04:00
7:36 PM,60.8,59.0,94,30.01,2.5,South,3.5,-,N/A,,Clear,170,2012-12-09 01:36:00
7:42 PM,60.8,60.8,100,30.01,3.0,South,3.5,-,N/A,,Clear,170,2012-12-09 01:42:00
7:55 PM,60.8,60.6,99,30.02,10.0,SSE,3.5,-,N/A,,Clear,160,2012-12-09 01:55:00
8:00 PM,59.0,59.0,100,30.02,2.5,Calm,Calm,-,N/A,,Clear,0,2012-12-09 02:00:00
8:04 PM,59.0,59.0,100,30.02,2.0,Calm,Calm,-,N/A,,Clear,0,2012-12-09 02:04:00
8:08 PM,60.8,59.0,94,30.02,2.5,Calm,Calm,-,N/A,,Clear,0,2012-12-09 02:08:00
8:10 PM,60.8,59.0,94,30.02,3.0,Calm,Calm,-,N/A,,Clear,0,2012-12-09 02:10:00
8:15 PM,59.0,59.0,100,30.02,2.5,Calm,Calm,-,N/A,,Clear,0,2012-12-09 02:15:00
8:16 PM,59.0,59.0,100,30.02,2.0,Calm,Calm,-,N/A,,Partly Cloudy,0,2012-12-09 02:16:00
8:17 PM,59.0,59.0,100,30.02,1.8,Calm,Calm,-,N/A,,Partly Cloudy,0,2012-12-09 02:17:00
8:22 PM,57.2,57.2,100,30.02,2.0,Calm,Calm,-,N/A,,Scattered Clouds,0,2012-12-09 02:22:00
8:25 PM,57.2,57.2,100,30.02,2.5,Calm,Calm,-,N/A,,Mostly Cloudy,0,2012-12-09 02:25:00
8:26 PM,57.2,57.2,100,30.02,4.0,Calm,Calm,-,N/A,,Mostly Cloudy,0,2012-12-09 02:26:00
8:32 PM,57.2,57.2,100,30.03,2.0,Calm,Calm,-,N/A,,Mostly Cloudy,0,2012-12-09 02:32:00
8:33 PM,57.2,57.2,100,30.03,1.8,Calm,Calm,-,N/A,,Mostly Cloudy,0,2012-12-09 02:33:00
8:40 PM,59.0,59.0,100,30.03,2.0,Calm,Calm,-,N/A,,Mostly Cloudy,0,2012-12-09 02:40:00
8:41 PM,59.0,59.0,100,30.03,2.5,Calm,Calm,-,N/A,,Mostly Cloudy,0,2012-12-09 02:41:00
8:42 PM,59.0,59.0,100,30.03,4.0,Calm,Calm,-,N/A,,Overcast,0,2012-12-09 02:42:00
8:55 PM,59.0,58.8,99,30.03,10.0,Calm,Calm,-,N/A,,Mostly Cloudy,0,2012-12-09 02:55:00
9:55 PM,56.7,56.3,99,30.03,8.0,Calm,Calm,-,N/A,,Clear,0,2012-12-09 03:55:00
10:06 PM,57.2,57.2,100,30.03,2.5,Calm,Calm,-,N/A,,Clear,0,2012-12-09 04:06:00
10:07 PM,57.2,57.2,100,30.03,1.5,Calm,Calm,-,N/A,,Clear,0,2012-12-09 04:07:00
10:08 PM,57.2,57.2,100,30.03,1.0,Calm,Calm,-,N/A,,Clear,0,2012-12-09 04:08:00
10:09 PM,57.2,57.2,100,30.04,0.8,Calm,Calm,-,N/A,,Clear,0,2012-12-09 04:09:00
10:10 PM,57.2,57.2,100,30.03,0.5,Calm,Calm,-,N/A,Fog,Fog,0,2012-12-09 04:10:00
10:42 PM,55.4,55.4,100,30.03,0.8,Calm,Calm,-,N/A,,Clear,0,2012-12-09 04:42:00
10:45 PM,55.4,55.4,100,30.03,1.0,Calm,Calm,-,N/A,,Clear,0,2012-12-09 04:45:00
10:46 PM,55.4,55.4,100,30.03,1.2,Calm,Calm,-,N/A,,Clear,0,2012-12-09 04:46:00
10:47 PM,55.4,55.4,100,30.03,1.8,Calm,Calm,-,N/A,,Clear,0,2012-12-09 04:47:00
10:48 PM,55.4,55.4,100,30.03,2.5,Calm,Calm,-,N/A,,Clear,0,2012-12-09 04:48:00
10:49 PM,55.4,55.4,100,30.03,3.0,Calm,Calm,-,N/A,,Clear,0,2012-12-09 04:49:00
10:55 PM,54.9,54.5,99,30.03,9.0,Calm,Calm,-,N/A,,Clear,0,2012-12-09 04:55:00
11:07 PM,55.4,55.4,100,30.03,2.0,Calm,Calm,-,N/A,,Clear,0,2012-12-09 05:07:00
11:08 PM,55.4,55.4,100,30.03,1.5,Calm,Calm,-,N/A,,Clear,0,2012-12-09 05:08:00
11:09 PM,55.4,55.4,100,30.03,1.2,Calm,Calm,-,N/A,,Clear,0,2012-12-09 05:09:00
11:10 PM,55.4,55.4,100,30.03,1.0,Calm,Calm,-,N/A,,Clear,0,2012-12-09 05:10:00
11:11 PM,55.4,55.4,100,30.03,0.8,Calm,Calm,-,N/A,,Clear,0,2012-12-09 05:11:00
11:12 PM,55.4,55.4,100,30.03,0.5,Calm,Calm,-,N/A,Fog,Fog,0,2012-12-09 05:12:00
11:15 PM,55.4,55.4,100,30.03,0.2,Calm,Calm,-,N/A,Fog,Fog,0,2012-12-09 05:15:00
11:52 PM,53.6,53.6,100,30.02,0.5,Calm,Calm,-,N/A,Fog,Fog,0,2012-12-09 05:52:00
11:55 PM,54.3,54.0,99,30.02,0.5,Calm,Calm,-,N/A,Fog,Fog,0,2012-12-09 05:55:00
11:59 PM,53.6,53.6,100,30.02,0.8,Calm,Calm,-,N/A,,Clear,0,2012-12-09 05:59:00